Du Bois, PA

2:48 AM EDT on May 29, 2017 (GMT -0400)
Du Bois-Jefferson County

Weather History for KDUJ - January, 2014

Change the Weather History Date:

Saturday, January 11, 2014

  Actual Average Record
Temperature  
Mean Temperature 43 °F 24 °F  
Max Temperature 52 °F 31 °F 56 °F (1975)
Min Temperature 34 °F 16 °F -11 °F (1982)
Degree Days  
Heating Degree Days 22 42  
Month to date heating degree days 502 452  
Since 1 July heating degree days 2989 3114  
Cooling Degree Days 0 0  
Month to date cooling degree days 0 0  
Year to date cooling degree days 0 0  
Moisture  
Dew Point 41 °F    
Average Humidity 82    
Maximum Humidity 93    
Minimum Humidity 70    
Precipitation  
Precipitation 0.55 in 0.10 in 0.61 in (1993)
Month to date precipitation 1.02 1.15  
Sea Level Pressure  
Sea Level Pressure 29.52 in    
Wind  
Wind Speed 13 mph (SSW)    
Max Wind Speed 38 mph    
Max Gust Speed 52 mph    
Visibility 6 miles    
Events Fog , Rain    
T = Trace of Precipitation, MM = Missing Value Source: NWS Daily Summary

Daily Weather History Graph

Daily Weather History Graph

Search for Another Location

Airport or City:

Trip Planner

Search our weather history database for the weather conditions in past years. The results will help you decide how hot, cold, wet, or windy it might be!

Date:

Astronomy

Jan. 11, 2014 Rise Set
Actual Time 7:40 AM EST 5:07 PM EST
Civil Twilight 7:09 AM EST 5:37 PM EST
Nautical Twilight 6:35 AM EST 6:12 PM EST
Astronomical Twilight 6:02 AM EST 6:45 PM EST
Moon 1:50 PM EST (1/11) 3:42 AM EST (1/11)
Length of Visible Light 10h 28m
Length of Day
9h 27m
Waxing Gibbous, 83% of the Moon is Illuminated
Jan 11
Waxing Gibbous
Jan 15
Full
Jan 24
Last Quarter
Jan 30
New
Feb 6
First Quarter

Hourly Weather History & Observations

Time (EST) Temp. Windchill Dew Point Humidity Pressure Visibility Wind Dir Wind Speed Gust Speed Precip Events Conditions
12:31 AM 37.4 °F 30.3 °F 35.6 °F 93% 29.90 in 2.5 mi SE 10.4 mph - N/A   Overcast
12:56 AM 37.9 °F 30.0 °F 36.0 °F 93% 29.92 in 3.0 mi SE 12.7 mph - N/A   Overcast
1:56 AM 39.0 °F 31.4 °F 36.0 °F 89% 29.88 in 4.0 mi SE 12.7 mph - N/A   Overcast
2:25 AM 41.0 °F 33.9 °F 37.4 °F 87% 29.82 in 6.0 mi SE 12.7 mph - N/A   Overcast
2:56 AM 42.1 °F 35.2 °F 39.0 °F 89% 29.84 in 9.0 mi SE 12.7 mph 19.6 mph N/A   Overcast
3:56 AM 41.0 °F 34.7 °F 37.9 °F 89% 29.79 in 8.0 mi SE 10.4 mph - N/A   Scattered Clouds
4:56 AM 43.0 °F 36.0 °F 39.9 °F 89% 29.73 in 10.0 mi SE 13.8 mph - N/A   Overcast
5:56 AM 45.0 °F 38.9 °F 41.0 °F 86% 29.68 in 10.0 mi SE 12.7 mph - N/A   Overcast
6:56 AM 46.0 °F 40.2 °F 42.1 °F 86% 29.65 in 10.0 mi SE 12.7 mph - N/A   Overcast
7:56 AM 48.0 °F - 44.1 °F 86% 29.58 in 10.0 mi SE 12.7 mph 20.7 mph N/A   Scattered Clouds
8:56 AM 50.0 °F - 46.0 °F 86% 29.56 in 10.0 mi SSE 9.2 mph 24.2 mph N/A   Overcast
9:05 AM 48.2 °F - 44.6 °F 87% 29.59 in 10.0 mi WNW 16.1 mph 25.3 mph N/A   Overcast
9:16 AM 48.2 °F - 46.4 °F 93% 29.60 in 2.5 mi West 6.9 mph - 0.06 in Rain Light Rain
9:22 AM 48.2 °F - 46.4 °F 93% 29.59 in 1.5 mi WNW 6.9 mph - 0.09 in Rain Light Rain
9:28 AM 48.2 °F - 44.6 °F 87% 29.59 in 3.0 mi NW 5.8 mph - 0.09 in Rain Light Rain
9:38 AM 48.2 °F - 44.6 °F 87% 29.58 in 3.0 mi Calm Calm - 0.11 in Rain Light Rain
9:56 AM 48.0 °F - 45.0 °F 89% 29.61 in 1.8 mi WNW 3.5 mph - 0.15 in Rain Light Rain
10:07 AM 48.2 °F - 44.6 °F 87% 29.58 in 2.0 mi Calm Calm - 0.02 in Rain Light Rain
10:21 AM 46.4 °F 44.3 °F 44.6 °F 93% 29.58 in 0.8 mi ESE 4.6 mph - 0.05 in Rain Light Rain
10:30 AM 46.4 °F 44.3 °F 44.6 °F 93% 29.57 in 0.2 mi East 4.6 mph - 0.07 in Fog , Rain Light Rain
10:56 AM 46.9 °F - 45.0 °F 93% 29.56 in 0.2 mi ESE 6.9 mph - 0.13 in Fog , Rain Light Rain
11:07 AM 46.4 °F 44.3 °F 44.6 °F 93% 29.53 in 0.5 mi ESE 4.6 mph - 0.05 in Fog , Rain Light Rain
11:25 AM 46.4 °F 41.9 °F 44.6 °F 93% 29.52 in 0.8 mi ESE 9.2 mph - 0.13 in Rain Light Rain
11:33 AM 46.4 °F 41.5 °F 44.6 °F 93% 29.50 in 1.0 mi ESE 10.4 mph - 0.14 in Rain Light Rain
11:43 AM 48.2 °F - 44.6 °F 87% 29.48 in 0.5 mi SE 12.7 mph - 0.16 in Fog , Rain Light Rain
11:46 AM 48.2 °F - 44.6 °F 87% 29.48 in 0.2 mi SE 10.4 mph - 0.17 in Fog , Rain Light Rain
11:56 AM 48.0 °F - 45.0 °F 89% 29.48 in 0.2 mi SE 11.5 mph - 0.18 in Fog , Rain Light Rain
12:03 PM 48.2 °F - 46.4 °F 93% 29.46 in 0.2 mi SE 9.2 mph - 0.01 in Fog , Rain Light Rain
12:13 PM 48.2 °F - 46.4 °F 93% 29.47 in 0.5 mi SSE 8.1 mph - 0.01 in Fog Fog
12:35 PM 48.2 °F - 46.4 °F 93% 29.44 in 0.2 mi SSE 8.1 mph - 0.02 in Fog Fog
12:56 PM 48.9 °F - 46.9 °F 93% 29.40 in 0.2 mi SSE 9.2 mph - 0.02 in Fog Fog
1:06 PM 48.2 °F - 46.4 °F 93% 29.37 in 1.0 mi SE 13.8 mph 21.9 mph N/A   Mist
1:09 PM 48.2 °F - 46.4 °F 93% 29.37 in 3.0 mi SSE 12.7 mph 21.9 mph N/A   Overcast
1:56 PM 50.0 °F - 46.9 °F 89% 29.37 in 10.0 mi South 6.9 mph - N/A   Overcast
2:03 PM 50.0 °F - 46.4 °F 87% 29.36 in 10.0 mi SSW 6.9 mph - N/A   Overcast
2:12 PM 50.0 °F - 46.4 °F 87% 29.35 in 10.0 mi SSW 10.4 mph 18.4 mph N/A   Overcast
2:56 PM 51.1 °F - 46.9 °F 86% 29.34 in 10.0 mi SW 12.7 mph - N/A   Overcast
3:56 PM 51.1 °F - 46.9 °F 86% 29.36 in 10.0 mi SW 17.3 mph 24.2 mph N/A   Overcast
4:10 PM 51.8 °F - 46.4 °F 82% 29.35 in 10.0 mi SW 19.6 mph 27.6 mph N/A   Overcast
4:56 PM 51.1 °F - 45.0 °F 80% 29.35 in 10.0 mi WSW 12.7 mph - N/A   Overcast
5:26 PM 50.0 °F - 42.8 °F 76% 29.33 in 10.0 mi WSW 18.4 mph 28.8 mph N/A   Scattered Clouds
5:56 PM 45.0 °F 37.1 °F 39.9 °F 82% 29.37 in 6.0 mi West 19.6 mph 36.8 mph 0.03 in Rain Light Rain
6:20 PM 44.6 °F 37.8 °F 39.2 °F 81% 29.38 in 8.0 mi West 15.0 mph 25.3 mph 0.02 in Rain Light Rain
6:32 PM 44.6 °F 36.6 °F 39.2 °F 81% 29.38 in 6.0 mi West 19.6 mph 25.3 mph 0.04 in Rain Light Rain
6:39 PM 44.6 °F 37.2 °F 39.2 °F 81% 29.38 in 10.0 mi West 17.3 mph 25.3 mph 0.04 in   Overcast
6:48 PM 42.8 °F 35.1 °F 39.2 °F 87% 29.38 in 10.0 mi West 16.1 mph 26.5 mph 0.04 in   Overcast
6:56 PM 43.0 °F 35.1 °F 37.9 °F 82% 29.40 in 10.0 mi West 17.3 mph 26.5 mph 0.04 in   Overcast
7:10 PM 42.8 °F 34.0 °F 37.4 °F 81% 29.39 in 10.0 mi West 20.7 mph 27.6 mph N/A   Overcast
7:56 PM 42.1 °F 33.1 °F 34.0 °F 73% 29.43 in 10.0 mi West 20.7 mph 31.1 mph N/A   Overcast
8:37 PM 39.2 °F 30.2 °F 30.2 °F 70% 29.46 in 10.0 mi West 17.3 mph 33.4 mph N/A   Overcast
8:44 PM 39.2 °F 30.2 °F 30.2 °F 70% 29.46 in 10.0 mi West 17.3 mph 27.6 mph N/A   Overcast
8:53 PM 39.2 °F 29.8 °F 30.2 °F 70% 29.47 in 10.0 mi West 18.4 mph 26.5 mph N/A   Overcast
8:56 PM 39.0 °F 30.3 °F 30.0 °F 70% 29.49 in 10.0 mi West 16.1 mph 25.3 mph N/A   Overcast
9:12 PM 39.2 °F 30.2 °F 30.2 °F 70% 29.48 in 10.0 mi West 17.3 mph 24.2 mph N/A   Overcast
9:56 PM 37.9 °F 27.6 °F 30.0 °F 73% 29.53 in 10.0 mi WSW 20.7 mph 26.5 mph N/A   Overcast
10:43 PM 37.4 °F 27.5 °F 30.2 °F 75% 29.54 in 10.0 mi WSW 18.4 mph 29.9 mph N/A   Overcast
10:56 PM 36.0 °F 25.6 °F 30.9 °F 82% 29.56 in 10.0 mi WSW 18.4 mph 26.5 mph N/A   Overcast
11:56 PM 35.1 °F 25.2 °F 28.9 °F 78% 29.58 in 8.0 mi West 16.1 mph 26.5 mph N/A   Overcast